This demonstration page uses our WeatherBlox Daily Observations layout. Learn more.

Left ArrowRight Arrow

39.51506, -84.39828

Hourly Observations for August 3, 2021

Temp ( °F °C ) Dew Point ( °F °C ) Humidity (%) Winds ( mph kmh ) Pressure ( in mb ) Visibility ( mi km ) Precip ( " mm )
12:15 am 00:15 Clear 59 14.8 58 14.4 97 97 NNE 5 7 30.12 1020 10 16 N/A
12:35 am 00:35 Clear 61 15.9 58 14.3 90 90 NNE 5 7 30.11 1020 7 11 N/A
12:55 am 00:55 Clear 59 15.1 58 14.3 95 95 NNE 5 7 30.12 1020 10 16 N/A
1:15 am 01:15 Clear 59 15.2 57 14.1 93 93 NNE 6 9 30.12 1020 10 16 N/A
1:35 am 01:35 Clear 59 15.2 57 13.9 92 92 NNE 6 9 30.12 1020 7 11 N/A
1:55 am 01:55 Clear 59 15 57 13.9 93 93 NNE 5 7 30.12 1020 10 16 N/A
2:15 am 02:15 Clear 57 14 57 13.9 99 99 NNE 5 7 30.11 1020 10 16 N/A
2:35 am 02:35 Clear 58 14.3 56 13.6 96 96 NNE 5 7 30.11 1020 10 16 N/A
2:55 am 02:55 Clear 57 13.8 56 13.5 98 98 N N/A 30.10 1019 10 16 N/A
3:15 am 03:15 Clear 57 14 57 14 100 100 N N/A 30.10 1019 10 16 N/A
3:35 am 03:35 Clear 57 13.9 57 13.7 99 99 NNE 5 7 30.10 1019 7 11 N/A
3:55 am 03:55 Clear 57 13.7 56 13.6 99 99 NE 3 6 30.10 1019 10 16 N/A
4:15 am 04:15 Clear with Mist and Fog 57 13.9 56 13.6 98 98 NNE 5 7 30.09 1019 7 11 N/A
4:35 am 04:35 Clear 57 13.9 56 13.6 98 98 NE 5 7 30.09 1019 7 11 N/A
4:55 am 04:55 Clear 57 14.1 57 14 99 99 NNE 3 6 30.09 1019 10 16 N/A
5:15 am 05:15 Clear 55 13 55 13 100 100 NNE 5 7 30.09 1019 10 16 N/A
5:35 am 05:35 Clear 55 13 55 13 100 100 NNE 5 7 30.10 1019 7 11 N/A
5:55 am 05:55 Clear with Mist and Fog 56 13.4 56 13.3 99 99 NNE 5 7 30.09 1019 4 6 N/A
6:15 am 06:15 Clear with Mist and Fog 56 13.3 56 13.2 99 99 NNE 5 7 30.10 1019 5 8 N/A
6:35 am 06:35 Clear 56 13.4 56 13.3 99 99 NNE 5 7 30.10 1019 10 16 N/A
6:55 am 06:55 Sunny 55 13 55 13 100 100 NNE 6 9 30.10 1019 10 16 N/A
7:15 am 07:15 Sunny 57 13.7 56 13.4 98 98 NE 5 7 30.10 1019 10 16 N/A
7:35 am 07:35 Sunny 58 14.3 57 14.1 99 99 N N/A 30.11 1020 10 16 N/A
7:55 am 07:55 Sunny 59 14.8 58 14.3 97 97 N N/A 30.12 1020 10 16 N/A
8:15 am 08:15 Sunny 60 15.7 59 15 96 96 N N/A 30.11 1020 10 16 N/A
8:35 am 08:35 Sunny 63 17.4 60 15.7 90 90 N N/A 30.11 1020 10 16 N/A
8:55 am 08:55 Sunny 65 18.4 59 15.1 81 81 NE 5 7 30.11 1020 10 16 N/A
9:15 am 09:15 Sunny 67 19.4 60 15.4 78 78 ENE 6 9 30.11 1020 10 16 N/A
9:35 am 09:35 Sunny 68 20 59 15 73 73 NNE 5 7 30.10 1019 10 16 N/A
9:55 am 09:55 Sunny 70 20.9 60 15.4 71 71 N 5 7 30.10 1019 10 16 N/A
10:15 am 10:15 Sunny 71 21.7 59 15.1 66 66 NNE 5 7 30.10 1019 10 16 N/A
10:35 am 10:35 Sunny 72 22.4 60 15.5 65 65 NE 5 7 30.09 1019 10 16 N/A
10:55 am 10:55 Partly Cloudy 75 23.8 60 15.4 59 59 NE 6 9 30.09 1019 10 16 N/A
11:15 am 11:15 Sunny 77 24.8 58 14.7 54 54 NNE 8 13 30.08 1019 10 16 N/A
11:35 am 11:35 Sunny 77 25.2 57 13.9 50 50 N 8 13 30.07 1018 10 16 N/A
11:55 am 11:55 Mostly Cloudy 75 24 56 13.2 51 51 NNE 5 7 30.08 1018 10 16 N/A
12:15 pm 12:15 Partly Cloudy 75 24 56 13.4 52 52 N N/A 30.08 1018 10 16 N/A
12:35 pm 12:35 Mostly Cloudy 77 24.9 56 13.2 48 48 N 5 7 30.06 1018 10 16 N/A
12:55 pm 12:55 Sunny 79 26.3 57 13.7 46 46 NE 9 15 30.06 1018 10 16 N/A
1:15 pm 13:15 Sunny 79 26.3 55 12.8 43 43 NNE 10 17 30.06 1018 10 16 N/A
1:35 pm 13:35 Sunny 79 25.9 53 11.8 41 41 NNW 7 11 30.06 1018 10 16 N/A
1:55 pm 13:55 Partly Cloudy 80 26.5 54 12.3 41 41 ENE 10 17 30.05 1018 10 16 N/A
2:15 pm 14:15 Partly Cloudy 79 26.1 51 10.7 38 38 ENE 5 7 30.05 1018 10 16 N/A
2:35 pm 14:35 Sunny 81 27.2 55 12.6 40 40 E 13 20 30.04 1017 10 16 N/A
2:55 pm 14:55 Partly Cloudy 82 27.6 54 12.2 38 38 ENE 12 19 30.04 1017 10 16 N/A
3:15 pm 15:15 Partly Cloudy 81 27.2 54 12 39 39 ENE 8 13 30.03 1017 10 16 N/A
3:35 pm 15:35 Hazy 81 27.3 52 11.3 37 37 SE 6 9 30.03 1017 7 11 N/A
3:55 pm 15:55 Cloudy 81 27.1 53 11.5 38 38 ENE 7 11 30.03 1017 10 16 N/A
4:15 pm 16:15 Partly Cloudy 78 25.6 53 11.5 41 41 E 6 9 30.02 1017 10 16 N/A
4:35 pm 16:35 Mostly Cloudy 82 27.8 54 12 38 38 E 7 11 30.02 1016 10 16 N/A
4:55 pm 16:55 Cloudy 81 27.3 55 12.5 40 40 ENE 9 15 30.02 1017 7 11 N/A
5:15 pm 17:15 Sunny 79 26.3 54 12.4 42 42 NNE 6 9 30.02 1017 10 16 N/A
5:35 pm 17:35 Partly Cloudy 82 27.5 54 12.3 39 39 NNE 6 9 30.02 1017 10 16 N/A
5:55 pm 17:55 Cloudy 80 26.8 54 12 40 40 NE 9 15 30.02 1017 10 16 N/A
6:15 pm 18:15 Partly Cloudy 80 26.4 53 11.9 41 41 NNE 5 7 30.02 1017 10 16 N/A
6:35 pm 18:35 Mostly Cloudy 79 26.3 53 11.8 40 40 NNE 8 13 30.01 1016 10 16 N/A
6:55 pm 18:55 Partly Cloudy 79 26.1 55 12.8 44 44 NNE 6 9 30.01 1016 10 16 N/A
7:15 pm 19:15 Sunny 79 26 55 12.8 44 44 NNE 7 11 30.01 1016 10 16 N/A
7:35 pm 19:35 Mostly Cloudy 78 25.6 56 13.2 46 46 N 8 13 30.01 1016 10 16 N/A
7:55 pm 19:55 Partly Cloudy 77 25 56 13.3 48 48 NNE 5 7 30.01 1016 10 16 N/A
8:15 pm 20:15 Cloudy 76 24.6 56 13.6 50 50 NNE 5 7 30.02 1017 10 16 N/A
8:35 pm 20:35 Cloudy 75 23.9 56 13.5 52 52 N 6 9 30.03 1017 10 16 N/A
8:55 pm 20:55 Partly Cloudy 72 22.3 58 14.3 61 61 N N/A 30.03 1017 10 16 N/A
9:15 pm 21:15 Clear 71 21.4 59 14.9 67 67 N 3 6 30.04 1017 10 16 N/A
9:35 pm 21:35 Clear 69 20.8 59 15 70 70 N 3 6 30.05 1018 10 16 N/A
9:55 pm 21:55 Clear 69 20.4 58 14.6 69 69 N 5 7 30.06 1018 10 16 N/A
10:15 pm 22:15 Clear 67 19.5 57 14 71 71 N 6 9 30.07 1018 10 16 N/A
10:35 pm 22:35 Clear 66 19 57 13.8 72 72 N 6 9 30.07 1018 10 16 N/A
10:55 pm 22:55 Clear 65 18.4 58 14.5 78 78 NNE 5 7 30.07 1018 10 16 N/A
11:15 pm 23:15 Clear 64 17.7 58 14.4 81 81 N 5 7 30.07 1018 10 16 N/A
11:35 pm 23:35 Clear 63 17.3 58 14.2 82 82 N 5 7 30.07 1018 10 16 N/A
11:55 pm 23:55 Clear 63 17 58 14.6 86 86 N 5 7 30.07 1018 10 16 N/A

Powered by AerisWeather